sat.trackr.live / text

‹ back to catalog

LEMUR-2-MONSON

NORAD 42839 · 2017-042Q

PAYLOAD ACTIVE UNKNOWN

§ Identity

Operator
Country
US
Launch date
2017-07-14
Launch site
TYMSC
Launch vehicle
Mass (kg)
RCS (m²)

Purposes: earth_obs

External: N2YO · Heavens-Above · Gunter

§ Orbital elements

Epoch: 2026-05-24T23:22:00.591744Z

Period
94.29 min
Inclination
97.4078°
Eccentricity
0.0008030
Mean motion
15.27264360 rev/d
Perigee alt
478.5 km
Apogee alt
489.5 km
Semi-major
6,862.1 km
B*
5.1051e-4
RAAN
325.7274°
Arg perigee
81.6578°
Mean anomaly
278.5571°
Rev number
48,462

§ Raw data

LEMUR-2-MONSON1 42839U 17042Q   26144.97361796  .00013587  00000+0  51051-3 0  99932 42839  97.4078 325.7274 0008030  81.6578 278.5571 15.27264360484624

JSON: /api/v1/satellites/42839 · /tle

For live sub-satellite position, see the globe view (requires WebGL).

§ Visibility from observer

Set your observer location to see the next 7 days of passes ≥ 10°. The values pass through the URL so the page stays shareable.

No JS? Fill the form by hand. The geolocation button needs JavaScript.